Location: Hamburg
(53.5554°N, 9.9941°E)
Time: 13:35:38
(UTC+01:00)

ISS - Pass Details

Date: 14 November 2017
Orbit: 402 x 407 km, 51.6° (Epoch: 19 November)

Event Time Altitude Azimuth Distance (km) Brightness Sun altitude
Exits shadow 05:45:24 26° 209° (SSW) 843 -2.5 -17.4°
Maximum altitude 05:45:27 26° 208° (SSW) 843 -2.4 -17.4°
Drops below altitude 10° 05:48:13 10° 149° (SSE) 1,452 -0.5 -17.0°
Sets 05:50:29 0° 137° (SE) 2,308 0.9 -16.7°
